Weather in Pugachevo

Russia / Udmurt Republic     56°35′44″N   53°04′26″E
temp.,
°C
wind,
m/s
gust,
m/s
humid.,
%
clouds,
%
prec.,
mm/h
press.,
hPa
HPBL,
m
18 april, sun
sun1801:00+4nnw22734 0.0 102314
04:00+3nnw22785 0.0 102317
07:00+4nnw25745 0.0 1022142
10:00+9nne56575 0.0 1022967
13:00+6ne786387 0.0 10241104
16:00+7ne79375 0.0 10261419
19:00+5ne510484 0.0 1026551
22:00+3ene6135127 0.0 1028629
19 april, mon
mon1901:000ene6135368 0.0 1030523
04:00−1ene6135581 0.0 1032479
07:000ene6114743 0.0 1032706
10:00+3e810290 0.0 10331348
13:00+5e79260 0.0 10321631
16:00+6e68270 0.0 10321737
19:00+4e59380 0.0 1033314
22:000ene49520 0.0 1034187
20 april, tue
tue2001:00−1e38550 0.0 1035154
04:00−1e37550 0.0 1035138
07:00+1ese24480 0.0 1036204
10:00+5ese34330 0.0 10361034
13:00+7ese33300 0.0 10351275
16:00+8se22290 0.0 10331267
19:00+6ese22410 0.0 103211
22:00+3ese11450 0.0 103310
21 april, wed
wed2101:00+2ese22520 0.0 103217
04:00+1se22540 0.0 103212
07:00+3se255058 0.0 1032163
10:00+8se573788 0.0 1032852
13:00+11se6832100 0.0 10301139
16:00+12sse6931100 0.0 10291526
19:00+10sse51143100 0.0 1028318
22:00+7sse41250100 0.0 1028287
22 april, thu
thu2201:00+6sse51352100 0.0 1028354
04:00+5sse41157100 0.0 1029395
07:00+5s61379100 0.0 1029795
10:00+4s61194100 0.3 1030844
13:00+4s61192100 0.7 1031817
16:00+5s61097100 1.1 1031821
19:00+5s41090100 0.1 1031489
22:00+5s4988100 0.1 1031512